LEMUR-2-TOMHENDERSON

Last updated on Wed Feb 15 2023 00:02:07 GMT+0000 (Coordinated Universal Time)

1 43561U 18046H 23044.23424138 .06946628 12063-4 15307-2 0 9993 2 43561 51.6262 40.3393 0007662 120.2665 239.9117 16.29549322256624

Satellite not in orbit